Regional Weather Roundup
Issued by NWS New Orleans/Baton Rouge, LA

Home | Current Version | Previous Version | Graphics & Text | Print | Product List | Glossary On
Versions: 1 2 3 4 5 6 7 8 9 10 11 12 13 14 15 16 17 18 19 20 21 22 23 24 25 26 27 28 29 30 31 32 33 34 35 36 37 38 39 40 41 42 43 44 45 46 47 48 49 50
090
ASUS44 KLIX 011910
RWRLIX
NEW ORLEANS REGIONAL WEATHER ROUNDUP
NATIONAL WEATHER SERVICE NEW ORLEANS LA
200 PM CDT MON SEP 01 2014

NOTE: "FAIR" INDICATES FEW OR NO CLOUDS BELOW 12,000 FEET WITH NO
      SIGNIFICANT WEATHER AND/OR OBSTRUCTIONS TO VISIBILITY.
      SKY/WX - SKY CONDITION AND SIGNIFICANT WEATHER.
      TMP - AIR TEMPERATURE.     DP    - DEWPOINT TEMPERATURE.
      RH  - RELATIVE HUMIDITY.   PRES  - PRESSURE.
      HI  - HEAT INDEX.          WCI   - WIND CHILL INDEX.

*  THESE STATIONS ARE NOT NWS OR FAA STATIONS AND ARE NOT UNDER
   NWS QUALITY CONTROL.

LAZ038-040-048-061>063-065>067-069-012000-
SOUTHEAST LOUISIANA

CITY           SKY/WX    TMP DP  RH WIND       PRES   REMARKS
N.O. AUDUBON   NOT AVBL
N.O. INTL ARPT PTSUNNY   90  75  61 S15       30.03F THUNDER HX 100
N.O. LAKEFRONT RAIN      84  77  79 SE15G32   30.05S
N.O. DOWNTOWN* CLOUDY    84  73  70 S6G16     30.04S
SLIDELL        PTSUNNY   85  76  74 SE7       30.04F
BATON ROUGE    MOSUNNY   91  72  53 SE14G23   30.00F HX  98
BOOTHVILLE     PTSUNNY   89  76  65 S13       30.04F HX 100
BELLE CHASSE   PTSUNNY   88  75  65 E10       30.03F HX  97
BOGALUSA*        N/A     92  73  53 S10       30.05F HX 101
GALLIANO*      NOT AVBL
NEW ROADS*       N/A     87  75  67 SE8       30.00F HX  97
GONZALES*        N/A     89  76  67 SE8       30.00F HX 100
HAMMOND*       PTSUNNY   84  75  74 SE7       30.04F
HOUMA*         PTSUNNY   90  73  58 S16       30.02F HX  98
PORT FOURCHON* PTCLDY    86  77  74 SE13      30.05F HX  97

$$

MSZ070-080>082-012000-
SOUTHERN MISSISSIPPI

CITY           SKY/WX    TMP DP  RH WIND       PRES   REMARKS
MCCOMB         MOSUNNY   90  70  51 S13       30.03F HX  95
GULFPORT       MOSUNNY   90  76  63 SE17G24   30.05F HX 101
BILOXI         MOSUNNY   90  75  61 S13       30.06F HX 101
PASCAGOULA     MOSUNNY   89  73  59 S12       30.07S HX  97
STENNIS ARPT*  PTSUNNY  N/A N/A N/A S7        30.06S

$$

COASTAL OBSERVATIONS
LAKE AND NEARSHORE STATIONS

STATION/POSITION TIME  TEMP    WIND        PRES    WAVE
                       AIR SEA DIR/SP/G            HT/PER
                 (UTC) (F)     (DEG/KT/KT) (MB)    (FT/S)
PASCAGOULA       1900   90     150/ 11/ 14 1018.0
WAVELAND YACHT   1900   84     160/ 16/ 18 1017.3
GRAND ISLE       1900   83 84  140/  7/ 12 1018.0
SOUTHWEST PASS   1900   84 90  220/  7/  9 1017.8
NEW CANAL        1900   87 82  150/  3/  6 1017.4
SHELL BEACH      1900   86 81  150/ 13/ 19 1017.4

OFFSHORE STATIONS

STATION/POSITION TIME  TEMP    WIND        PRES    WAVE
                       AIR SEA DIR/SP/G            HT/PER
                 (UTC) (F)     (DEG/KT/KT) (MB)    (FT/S)
64 S DAUPHIN ISL 1826   85 86  130/ 16/ 17 1018.4

$$




USA.gov is the U.S. government's official web portal to all federal, state and local government web resources and services.